Home > Weather > Balingen > Past weeks

Flag for Germany Weather for the Past 2 Weeks in Balingen, Baden-Württemberg, Germany

Now
57 °F

Sunny.


Feels Like: 55 °F
Forecast: 35 / 61 °F
Wind: 8 mph from North

Location: Stuttgart-Echterdingen

Current Time: May 4, 2016 at 3:57:22 PM

Latest Report: May 4, 2016 at 3:20 PM


Visibility: 10 mi

Pressure: 30.30 "Hg (28.48 "Hg at 520m altitude)

Humidity: 41%

Dew Point: 34 °F

Location of BalingenLocation

Historic Weather in Balingen — Graph

°F

Balingen Temperature Yesterday

Maximum temperature yesterday: 59 °F (at 11:50 AM)
Minimum temperature yesterday: 41 °F (at 6:20 AM)
Average temperature yesterday: 49 °F

High & Low Weather Summary for the Past Weeks

 TemperatureHumidityPressure
High68 °F (Apr 21, 3:50 PM)100% (Apr 24, 10:50 PM)30.39 "Hg (Apr 24, 10:50 PM)
Low30 °F (Apr 29, 3:50 AM)24% (Apr 21, 6:20 PM)29.56 "Hg (Apr 26, 5:50 AM)
Average47 °F70%30.01 "Hg
* Reported Apr 19 2:20 PM — May 4 2:20 PM, Balingen, Weather by CustomWeather, © 2016

Note: Actual official high and low records may vary slightly from our data, if they occured in-between our weather recording intervals... More about our weather records

Advertising

Balingen Weather History for the Previous 24 Hours

Scroll right to see more
 ConditionsComfort  
Time TempWeatherWind HumidityBarometerVisibility
2:20 PM
Wed, May 4
55 °FSunny.3 mph47%30.30 "Hg10 mi
1:20 PM55 °FPassing clouds.5 mph44%30.33 "HgN/A
12:50 PM54 °FPassing clouds.5 mph47%30.33 "HgN/A
12:20 PM52 °FScattered clouds.5 mph47%30.33 "HgN/A
11:50 AM52 °FScattered clouds.3 mph50%30.36 "HgN/A
11:20 AM52 °FScattered clouds.5 mph67%30.33 "HgN/A
10:50 AM52 °FScattered clouds.6 mph67%30.36 "HgN/A
9:50 AM50 °FPassing clouds.3 mph71%30.36 "HgN/A
9:20 AM48 °FPassing clouds.2 mph76%30.36 "HgN/A
8:20 AM46 °FSunny.2 mph76%30.36 "Hg10 mi
7:50 AM46 °FSunny.2 mph76%30.36 "Hg10 mi
7:20 AM43 °FPassing clouds.3 mph87%30.33 "HgN/A
6:20 AM41 °FPassing clouds.2 mph87%30.33 "HgN/A
5:50 AM41 °FPassing clouds.1 mph81%30.33 "HgN/A
5:20 AM41 °FPassing clouds.2 mph93%30.33 "HgN/A
4:50 AM41 °FPassing clouds.1 mph87%30.33 "HgN/A
4:20 AM41 °FClear.6 mph93%30.30 "Hg10 mi
3:50 AM43 °FClear.7 mph87%30.30 "Hg10 mi
3:20 AM45 °FPassing clouds.6 mph87%30.30 "HgN/A
2:50 AM45 °FPassing clouds.2 mph87%30.30 "HgN/A
2:20 AM45 °FPassing clouds.3 mph87%30.30 "HgN/A
1:50 AM45 °FPassing clouds.2 mph87%30.30 "HgN/A
12:50 AM45 °FPassing clouds.2 mph87%30.30 "HgN/A
12:20 AM45 °FClear.1 mph87%30.30 "Hg10 mi
11:50 PM
Tue, May 3
45 °FClear.2 mph87%30.30 "Hg10 mi
11:20 PM45 °FPassing clouds.3 mph93%30.30 "HgN/A
10:50 PM45 °FPassing clouds.2 mph87%30.30 "HgN/A
10:20 PM43 °FPassing clouds.1 mph93%30.27 "HgN/A
9:50 PM45 °FPassing clouds.8 mph93%30.27 "HgN/A
9:20 PM46 °FScattered clouds.7 mph87%30.24 "HgN/A
8:50 PM48 °FScattered clouds.7 mph87%30.24 "HgN/A
8:20 PM48 °FScattered clouds.7 mph87%30.21 "HgN/A
7:50 PM48 °FScattered clouds.8 mph87%30.21 "HgN/A
7:20 PM46 °FSprinkles. Broken clouds.14 mph82%30.18 "HgN/A
6:50 PM50 °FBroken clouds.16 mph76%30.18 "HgN/A
6:20 PM52 °FScattered clouds.10 mph72%30.18 "HgN/A
5:50 PM50 °FScattered clouds.12 mph76%30.18 "HgN/A
5:20 PM50 °FBroken clouds.15 mph82%30.18 "HgN/A
4:50 PM50 °FBroken clouds.15 mph82%30.15 "HgN/A
4:20 PM50 °FLight rain. Broken clouds.15 mph82%30.15 "HgN/A
3:50 PM50 °FLight rain. Broken clouds.13 mph82%30.15 "HgN/A
3:20 PM50 °FLight rain. Broken clouds.14 mph82%30.15 "HgN/A
Weather by CustomWeather, © 2016

See weather overviewHow to use our weather pages